Погода в Выборге

Хотите узнать прогноз погоды в Выборге? Тогда Вам сюда: Погода в Выборге

Поиск расширенной информации на нашем сайте:

Полезная информация:

Новости сайта



02.01.2020
Опубликован Долгосрочный прогноз погоды по городам России и ближнего зарубежья на январь 2020 года.
Карты: Прогноз на январь и февраль 2020 года, Сравнение прогнозируемой аномалии приземной температуры воздуха на январь 2020 года по разным моделям.




Погода в Выборге - сегодня

Время (UTC), дата Ветер
(°,м/с) 
Видим.   Явления Облачность Т
(°С)
Тd
(°С)
f(%) Тe
(°С)
Pmin
(гПа)
dP
(гПа)
Po
(мм)
O2
(г/м3)
Тmin Tmax R s Состояние
почвы
09 16.01.21 020 (С) 20000 м    4/0 верхняя 
[Cc]
-18.7 -21.8 76 -23  1020.8  0.9  764  332           
12 16.01.21 010 (С) 20000 м    4/0 верхняя 
[Ci fib]
-17.5 -21 74 -20  1020.9  0.1  764  331           
15 16.01.21 340 (С) 20000 м    4/0 средняя 
[Ac trans]
-18.1 -20.1 84 -18  1020.4  -0.5  764  331           
18 16.01.21 330 (СЗ) 10 км    ясно 
-19.8 -22.4 80 -20  1019.8  -0.6  764  333    -16.8       
21 16.01.21 310 (СЗ) 10 км    ясно 
-20.9 -23.6 79 -21  1019.8  764  335           
00 17.01.21 290 (З) 10 км    8/8 150 м 
[St]
-19.4 -22 80 -20  1018.8  -1  763  333           
03 17.01.21 250 (З) 2000 м  дымка  8/0 средняя 
[Ac As]
-16.9 -19.1 83 -17  1017.6  -1.1  762  329  -21         
06 17.01.21 тихо ()   4000 м  дымка  8/8 120 м 
[St]
-14.9 -17 84 -15  1017  -0.6  761  326  -21      12  равномерный
сухой снег
100% 
09 17.01.21 230 (ЮЗ) 4000 м  слаб. снег  10/8 240 м средняя 
[Frnb|As op]
-12.1 -14 86 -12  1017.2  0.2  762  322           
12 17.01.21 260 (З) 4000 м  слаб. снег  10/0 средняя 
[As op]
-8.7 -10.2 89 -8  1017  -0.2  761  318           
15 17.01.21 тихо ()   10 км  {снег}  10/5 240 м средняя 
[Frnb|As op]
-7.8 -9.2 90 -8  1016.7  -0.3  761  317      0.8     
18 17.01.21 300 (СЗ) 10 км  {снег}  8/0 средняя 
[Ac trans]
-8.4 -9.7 90 -8  1016.8  0.1  761  317    -7.7  0.8     
21 17.01.21 260 (З) 10 км  слаб. снег  10/8 210 м средняя 
[Frnb|As op]
-8.4 -9.7 90 -8  1017  0.2  761  318           
00 18.01.21 тихо ()   10 км  {снег}  10/10 180 м 
[St]
-7.7 -8.9 91 -8  1016.6  -0.4  761  317           
03 18.01.21 200 (Ю) 10 км    8/6 210 м средняя 
[Frnb|Ac As]
-9.3 -10.8 89 -9  1016.4  -0.2  761  319  -9.3    0.2     
06 18.01.21 280 (З) 10 км    8/6 180 м средняя 
[Frnb|Ac As]
-9.1 -10.5 90 -9  1016.5  761  318  -9.5    0.2  13  равномерный
сухой снег
100% 
09 18.01.21 тихо ()   10 км  слаб. ливневой снег  9/6 600 м кучево-дожд., средняя 
[Cb cap|Ac As]
-8.3 -9.6 90 -8  1017  0.6  761  317           
12 18.01.21 тихо ()   10 км  {ливн. осадки}  10/8 480 м средняя 
[Sc diur, vesp|Ac As]
-7.2 -8.4 91 -7  1016.2  -0.8  761  316           
15 18.01.21 150 (ЮВ) 4000 м  слаб. ливневой снег  10/8 1080 м кучево-дожд., средняя 
[Cb cap|Ac As]
-6.5 -7.6 92 -6  1015.7  -0.5  761  315      0.2     
18 18.01.21 150 (ЮВ) 4000 м  слаб. снег{ливн. осадки}  10/10 1140 м 
[Sc]
-5.9 -7 92 -6  1015  -0.7  760  314    -5.8  0.2     
21 18.01.21 180 (Ю) 4000 м  слаб. снег  10/10 150 м 
[Ns]
-3.7 -4.5 94 -5  1014.8  -0.2  760  311           
00 19.01.21 180 (Ю) 4000 м  слаб. снег  10/0 средняя 
[As op]
-3.6 -4.5 93 -3  1014.8  760  311           
03 19.01.21 190 (Ю) 4000 м  слаб. снег  10/10 150 м 
[Ns]
-4 -4.8 94 -7  1013.3  -1.6  759  311  -5.9    0.2     
06 19.01.21 180 (Ю) 4000 м  слаб. снег  10/10 210 м 
[Ns]
-3.8 -4.8 93 -6  1012.8  -0.4  758  310  -5.9    0.5  14  равномерный
сухой снег
100% 
09 19.01.21 190 (Ю) 4000 м  слаб. снег  10/10 180 м 
[Ns]
-2.6 -3.3 95 -6  1012.9  0.2  758  309           
Время (UTC), дата Ветер
(°,м/с) 
Видим.   Явления Облачность Т
(°С)
Тd
(°С)
f(%) Тe
(°С)
Pmin
(гПа)
dP
(гПа)
Po
(мм)
O2
(г/м3)
Тmin Tmax R s Состояние
почвы

Для получения пояснительной информации подведите курсор к названию столбца.

ПОГОДА в Выборге - архив

Всё, что Вы хотите узнать о погоде в Выборге - удобно и подробно!

Выберите нужную дату (начиная с 1 января 2019* года) и нажмите кнопку "Найти".
Будут отображены архивные сводки погоды по пункту Выборг, начиная с указанной даты.


Отображать данные в формате CSV (для использования в таблицах Excel)


Внимание! Наш архив погоды предназначен исключительно для личного некоммерческого использования в познавательных целях. Если Вам необходимы официальные справки о состоянии погоды (для производственных, юридических, коммерческих и т.п. целей), обращайтесь в органы Росгидромета.

*Примечание: данная дата относится к архиву по метеостанциям СССР (Россия, СНГ, Балтия).
Архив по метеостанциям Зарубежной Европы и Азии (кроме Китая) хранится 10 дней, по другим регионам земного шара (Китай, Африка, Америка, Австралия, Океания) - 1 день.

Выборг - район местоположения метеостанции


Название, широта, долгота, высота метеостанции:
Выборг 60.7°ш. 28.7°д. 13 м над ур. моря [Российская Федерация]

Дополнительная информация

В oтличие oт бoльшинства пoгoдных сайтoв мы публикуем пoдрoбную метеoинфoрмацию в детальнoм прoфессиoнальнoм фoрмате.

Характеристики температуры и влажнoсти вoздуха измеряются на высoте 2 м в тени вдали oт зданий и деревьев.
Скoрoсть ветра измеряется на высoте 10 м (на урoвне рoста челoвека скoрoсть ветра ниже в 1.5-2 раза). Если метеoстанция нахoдится в гoрoде или в лесу, тo скoрoсть ветра занижена на 2-4 м/с пo сравнению с oткрытым местoм. Скoрoсть ветра над акватoриями крупных рек и oзёр, а также на вершинах хoлмoв на 2-5 м/с выше, чем в oбычных услoвиях.
Атмoсфернoе давление в разных тoчках местнoсти мoжет значительнo oтличаться oт давления на метеoстанции, в зависимoсти oт услoвий рельефа (при пoдъёме на 10 м давление пoнижается примернo на 1 мм рт.ст.).